Find Starlink 30169

NORAD ID: 57499 Int'l Des: 2023-113 Owner: SPXS Country: US Constellation: starlink operational
LEOCIRCULAR

Current View

Loading 3D Globe...

About Starlink 30169

Starlink 30169 (NORAD 57499) is a starlink constellation satellite (v2 mini) launched Aug 7, 2023 by SPXS of US. It operates in LEO, CIRCULAR orbit with a mass of 730.00 kg.

About Starlink 30169

Description loading...

Upcoming Passes

Passes for default location (London). Set your location on the main map for personalized predictions.

Altitude History

Loading altitude history...

Two-Line Element Set

1 57499U 23113E 26174.88547257 -.00002604 00000-0 -85086-4 0 9995
2 57499 43.0016 122.1486 0001008 267.2531 92.8205 15.27594417159926
Epoch: Jun 23, 2026 • Age: 13 hours

Current Status

Altitude 482.6 km
Velocity 7.63 km/s
Sub-Earth Point 18.40°N, 151.39°W
Launch Date Aug 7, 2023
Age 2.8 years
Type internet

Technical Details

Classification Payload
Mass 730.00 kg
Dry Mass 700.00 kg
Total Mass 730.00 kg
Length 0.30 m
Diameter 4.10 m
Span 29.00 m
Shape Box + pan
Manufacturer SPXS
Bus Type Starlink V2M
Phase Status In Orbit
Owner/State SPXS/US

Most Searched